Location: Gleizolles
(44.4833°N, 6.7667°E)
Time: 09:59:34
(UTC+00:00)

Tiros 1 - Pass Details

Date: 25 June 2024
Orbit: 624 x 656 km, 48.4° (Epoch: 20 July)

Event Time Altitude Azimuth Distance (km) Brightness Sun altitude
Rises 04:58:46 0° 288° (WNW) 2,923 10.1 10.0°
Reaches altitude 10° 05:01:23 10° 276° (W) 2,018 9.2 10.4°
Maximum altitude 05:05:11 25° 221° (SW) 1,279 8.3 11.0°
Drops below altitude 10° 05:09:00 10° 166° (SSE) 2,026 9.7 11.6°
Sets 05:11:39 0° 153° (SSE) 2,938 10.6 12.1°
